Earn Your Wings!


Squadron Photo Video

Since its foundation in 1951, Kitty Hawk Squadron 3 has trained hundreds of young men
and women to fly.  If you are between the ages of 14 and 21, you are eligible to participate
in this exciting program.  Ground and Flight Instruction are provided at no charge by our volunteer
Certified Flight Instructors.  Flight Training is performed in a Cessna 172 provided by the
North Hollywood Optimist Club, the primary sponsor of Squadron 3 since 1951.

Meetings are held Mondays at 7:00 PM
Signature Flight Support - 7240 Hayvenhurst Pl, Van Nuys, CA 91406



Whiteman Airport METAR: KWHP 282250Z 14006KT 10SM BKN040 20/13 A2991 KWHP 2021-09-28T22:50:00Z 34.25 -118.42


Van Nuys Airport METAR: KVNY 282251Z 17009KT 10SM SCT038 OVC046 22/13 A2987

this page last updated August 20, 2019